Regional Weather Roundup
Issued by NWS Little Rock, AR

Home | Current Version | Previous Version | Text Only | Print | Product List | Glossary Off
Versions: 1 2 3 4 5 6 7 8 9 10 11 12 13 14 15 16 17 18 19 20 21 22 23 24 25 26 27 28 29 30 31 32 33 34 35 36 37 38 39 40 41 42 43 44 45 46 47 48 49 50

000
ASUS44 KLZK 262305
RWRLZK

WEATHER ROUNDUP FOR ARKANSAS
NATIONAL WEATHER SERVICE LITTLE ROCK AR
600 PM CDT TUE MAY 26 2015

NOTE: "FAIR" INDICATES FEW OR NO CLOUDS BELOW 12,000 FEET WITH NO
SIGNIFICANT WEATHER AND/OR OBSTRUCTIONS TO VISIBILITY.

ARZ001-003-010-029-270000-
NORTHWEST ARKANSAS

CITY           SKY/WX    TMP DP  RH WIND       PRES   REMARKS
FAYETTEVILLE   MOSUNNY   76  62  62 S9        29.99F
FORT SMITH     SUNNY     81  65  58 E8        29.95F
HARRISON       SUNNY     78  61  55 S7        30.00F
BENTONVILLE    SUNNY     79  61  53 SW8       29.99F
ROGERS         SUNNY     79  60  52 SW9       30.00S
SILOAM SPGS    MOSUNNY   75  61  60 S6        30.00S
HIGHFILL       MOSUNNY   76  63  64 S7        29.98F
SPRINGDALE     MOSUNNY   79  61  53 S12       30.01F
$$

ARZ004-005-016-270000-
NORTH CENTRAL ARKANSAS

CITY           SKY/WX    TMP DP  RH WIND       PRES   REMARKS
BATESVILLE     SUNNY     79  63  57 S6        30.00S
FLIPPIN          N/A     81  61  50 S3        29.97F
MTN HOME       SUNNY     78  61  55 S6        29.98F
$$

ARZ040-041-270000-
WEST CENTRAL ARKANSAS

CITY           SKY/WX    TMP DP  RH WIND       PRES   REMARKS
MENA           PTSUNNY   82  70  65 S5        30.01F HX  86
MOUNT IDA      MOSUNNY   80  67  64 VRB6      29.98F
$$

ARZ009-017-025-026-028-270000-
NORTHEAST ARKANSAS

CITY           SKY/WX    TMP DP  RH WIND       PRES   REMARKS
CORNING        FAIR      77  64  65 SW15      30.00R
JONESBORO      MOSUNNY   75  65  70 SW13      30.01S
NEWPORT        SUNNY     79  65  62 S13       30.01F
WALNUT RIDGE   SUNNY     77  63  61 SW12      29.99F
BLYTHEVILLE    MOSUNNY   77  64  64 SW13G20   30.02S
$$

ARZ022-023-033-042-044-270000-
CENTRAL ARKANSAS

CITY           SKY/WX    TMP DP  RH WIND       PRES   REMARKS
LITTLE ROCK    MOSUNNY   79  63  57 S12       30.01F
N LITTLE ROCK  MOSUNNY   79  67  66 S7        30.01F
JACKSONVILLE   SUNNY     80  65  60 S8        30.01F
SEARCY         SUNNY     79  66  64 SW6       30.02F
HOT SPRINGS    SUNNY     79  67  66 S8        30.01F
RUSSELLVILLE   SUNNY     81  64  56 VRB6      29.98F
CLINTON        FAIR      79  66  65 SE6       30.00F
$$

ARZ036-270000-
EAST ARKANSAS

CITY           SKY/WX    TMP DP  RH WIND       PRES   REMARKS
WEST MEMPHIS   PTSUNNY   79  66  64 SW7       30.01S
$$

ARZ050-053-066-070-073-270000-
SOUTHWEST ARKANSAS

CITY           SKY/WX    TMP DP  RH WIND       PRES   REMARKS
ARKADELPHIA    FAIR      80  71  74 S7        30.02F
CAMDEN         SUNNY     82  66  57 CALM      30.02F HX  85
TEXARKANA      SUNNY     80  69  69 VRB6      30.00F
EL DORADO      SUNNY     81  70  69 NE5       30.03F
DE QUEEN       MOSUNNY   80  70  71 S6        29.97
$$

ARZ056-057-069-270000-
SOUTHEAST ARKANSAS

CITY           SKY/WX    TMP DP  RH WIND       PRES   REMARKS
PINE BLUFF     MOSUNNY   78  66  66 S10       30.03F
STUTTGART      MOSUNNY   81  64  57 SW13      30.03F
MONTICELLO     PTSUNNY   80  69  69 SW5       30.04F

$$





USA.gov is the U.S. government's official web portal to all federal, state and local government web resources and services.